Marion, IN

3:38 PM EDT on April 29, 2017 (GMT -0400)
Marion Municipal

Weather History for KMZZ - June, 2012

Change the Weather History Date:

Friday, June 15, 2012

  Actual Average (KMIE) Record (KMIE)
Temperature  
Mean Temperature 70 °F -  
Max Temperature 88 °F 82 °F 94 °F (1988)
Min Temperature 53 °F 62 °F 46 °F (1969)
Cooling Degree Days 6    
Growing Degree Days 20 (Base 50)    
Moisture  
Dew Point 46 °F    
Average Humidity 42    
Maximum Humidity 76    
Minimum Humidity 20    
Precipitation  
Precipitation 0.00 in - - ()
Sea Level Pressure  
Sea Level Pressure 30.12 in    
Wind  
Wind Speed 4 mph (ESE)    
Max Wind Speed 9 mph    
Max Gust Speed -    
Visibility 10 miles    
Events      
Averages and records for this station are not official NWS values.
T = Trace of Precipitation, MM = Missing Value Source: NWS Daily Summary

Daily Weather History Graph

Daily Weather History Graph

Search for Another Location

Airport or City:

Trip Planner

Search our weather history database for the weather conditions in past years. The results will help you decide how hot, cold, wet, or windy it might be!

Date:

Astronomy

Jun. 15, 2012 Rise Set
Actual Time 6:11 AM EDT 9:15 PM EDT
Civil Twilight 5:38 AM EDT 9:48 PM EDT
Nautical Twilight 4:56 AM EDT 10:30 PM EDT
Astronomical Twilight 4:06 AM EDT 11:20 PM EDT
Moon 3:25 AM EDT (6/15) 5:54 PM EDT (6/15)
Length of Visible Light 16h 09m
Length of Day
15h 03m
Waning Crescent, 14% of the Moon is Illuminated
Jun 15
Waning Crescent
Jun 19
New
Jun 26
First Quarter
Jul 3
Full
Jul 10
Last Quarter

Hourly Weather History & Observations

Time (EDT) Temp. Dew Point Humidity Pressure Visibility Wind Dir Wind Speed Gust Speed Precip Events Conditions
12:15 AM 65.3 °F 43.9 °F 46% 30.09 in 10.0 mi ESE 4.6 mph - N/A   Clear
12:35 AM 64.4 °F 44.1 °F 48% 30.08 in 10.0 mi SE 4.6 mph - N/A   Clear
12:55 AM 63.1 °F 43.9 °F 49% 30.09 in 10.0 mi SSE 4.6 mph - N/A   Clear
1:15 AM 63.0 °F 44.1 °F 50% 30.10 in 10.0 mi ESE 3.5 mph - N/A   Clear
1:35 AM 61.7 °F 45.0 °F 54% 30.11 in 10.0 mi Calm Calm - N/A   Clear
1:55 AM 60.3 °F 46.0 °F 59% 30.11 in 10.0 mi NNE 3.5 mph - N/A   Clear
2:15 AM 58.6 °F 46.2 °F 63% 30.12 in 10.0 mi NNE 3.5 mph - N/A   Clear
2:55 AM 59.7 °F 45.5 °F 59% 30.11 in 10.0 mi East 3.5 mph - N/A   Clear
3:35 AM 59.9 °F 45.0 °F 58% 30.10 in 10.0 mi ESE 4.6 mph - N/A   Clear
3:55 AM 57.0 °F 45.5 °F 65% 30.10 in 10.0 mi ESE 3.5 mph - N/A   Clear
4:15 AM 57.6 °F 45.5 °F 64% 30.11 in 10.0 mi Calm Calm - N/A   Clear
4:55 AM 56.7 °F 45.7 °F 67% 30.12 in 10.0 mi Calm Calm - N/A   Clear
5:15 AM 55.8 °F 46.0 °F 70% 30.12 in 10.0 mi NE 3.5 mph - N/A   Clear
5:35 AM 56.5 °F 46.6 °F 69% 30.12 in 10.0 mi Calm Calm - N/A   Clear
5:55 AM 54.9 °F 46.4 °F 73% 30.13 in 10.0 mi Calm Calm - N/A   Clear
6:15 AM 53.8 °F 46.4 °F 76% 30.14 in 10.0 mi Calm Calm - N/A   Clear
6:35 AM 54.1 °F 46.4 °F 75% 30.14 in 10.0 mi ESE 3.5 mph - N/A   Clear
6:55 AM 55.6 °F 46.6 °F 72% 30.14 in 10.0 mi Calm Calm - N/A   Clear
7:15 AM 56.5 °F 47.1 °F 71% 30.16 in 10.0 mi Calm Calm - N/A   Clear
7:55 AM 61.2 °F 49.3 °F 65% 30.16 in 10.0 mi Calm Calm - N/A   Clear
8:15 AM 63.1 °F 49.6 °F 61% 30.16 in 10.0 mi ESE 4.6 mph - N/A   Clear
8:35 AM 65.7 °F 50.2 °F 57% 30.16 in 10.0 mi ESE 3.5 mph - N/A   Clear
8:55 AM 68.4 °F 50.4 °F 53% 30.16 in 10.0 mi ESE 3.5 mph - N/A   Clear
9:15 AM 70.7 °F 51.3 °F 50% 30.16 in 7.0 mi SSE 5.8 mph - N/A   Clear
9:35 AM 72.9 °F 51.3 °F 47% 30.15 in 10.0 mi SSE 8.1 mph - N/A   Clear
9:55 AM 74.7 °F 51.1 °F 44% 30.15 in 10.0 mi SSE 4.6 mph - N/A   Clear
10:15 AM 76.6 °F 50.5 °F 40% 30.15 in 10.0 mi SSE 6.9 mph - N/A   Clear
10:35 AM 78.1 °F 49.6 °F 37% 30.15 in 10.0 mi ESE 4.6 mph - N/A   Clear
10:55 AM 78.8 °F 46.9 °F 32% 30.15 in 10.0 mi SSE 6.9 mph - N/A   Clear
11:15 AM 79.3 °F 46.9 °F 32% 30.14 in 10.0 mi South 5.8 mph - N/A   Clear
11:35 AM 80.1 °F 46.0 °F 30% 30.14 in 10.0 mi SSE 8.1 mph - N/A   Clear
11:55 AM 80.8 °F 45.5 °F 29% 30.14 in 7.0 mi ESE 8.1 mph - N/A   Clear
12:15 PM 81.3 °F 45.3 °F 28% 30.14 in 10.0 mi SE 9.2 mph - N/A   Clear
12:35 PM 81.9 °F 45.1 °F 27% 30.14 in 10.0 mi ESE 5.8 mph - N/A   Clear
12:55 PM 82.2 °F 45.3 °F 27% 30.14 in 10.0 mi South 3.5 mph - N/A   Clear
1:15 PM 82.9 °F 46.0 °F 27% 30.14 in 7.0 mi NE 5.8 mph - N/A   Clear
1:35 PM 83.7 °F 45.1 °F 26% 30.13 in 10.0 mi Calm Calm - N/A   Clear
1:55 PM 84.2 °F 43.7 °F 24% 30.13 in 10.0 mi SSE 5.8 mph - N/A   Clear
2:15 PM 84.7 °F 44.4 °F 24% 30.13 in 10.0 mi Calm Calm - N/A   Clear
2:35 PM 85.3 °F 45.1 °F 25% 30.12 in 10.0 mi SE 4.6 mph - N/A   Clear
2:55 PM 86.2 °F 44.8 °F 24% 30.11 in 7.0 mi ESE 4.6 mph - N/A   Clear
3:15 PM 86.5 °F 45.5 °F 24% 30.11 in 10.0 mi ESE 5.8 mph - N/A   Clear
3:35 PM 87.1 °F 44.2 °F 22% 30.11 in 7.0 mi SE 5.8 mph - N/A   Clear
3:55 PM 87.4 °F 43.5 °F 22% 30.12 in 10.0 mi East 5.8 mph - N/A   Clear
4:15 PM 88.0 °F 41.7 °F 20% 30.11 in 10.0 mi East 8.1 mph - N/A   Clear
4:35 PM 88.0 °F 42.8 °F 21% 30.11 in 7.0 mi ESE 9.2 mph - N/A   Clear
5:15 PM 88.7 °F 43.2 °F 20% 30.11 in 10.0 mi East 6.9 mph - N/A   Clear
5:35 PM 88.3 °F 43.9 °F 21% 30.10 in 10.0 mi ESE 8.1 mph - N/A   Clear
5:55 PM 88.7 °F 43.3 °F 21% 30.10 in 10.0 mi East 9.2 mph - N/A   Clear
6:15 PM 88.3 °F 43.5 °F 21% 30.10 in 10.0 mi SE 6.9 mph - N/A   Clear
6:35 PM 88.0 °F 43.9 °F 21% 30.09 in 10.0 mi SE 6.9 mph - N/A   Clear
6:55 PM 87.6 °F 43.0 °F 21% 30.10 in 10.0 mi SE 5.8 mph - N/A   Clear
7:15 PM 87.6 °F 43.5 °F 21% 30.09 in 7.0 mi East 8.1 mph - N/A   Clear
7:35 PM 87.1 °F 44.4 °F 23% 30.09 in 10.0 mi ESE 8.1 mph - N/A   Clear
8:15 PM 85.5 °F 45.0 °F 24% 30.09 in 7.0 mi ESE 4.6 mph - N/A   Clear
8:35 PM 83.7 °F 46.6 °F 27% 30.10 in 10.0 mi SE 4.6 mph - N/A   Clear
8:55 PM 81.1 °F 48.2 °F 32% 30.09 in 10.0 mi ESE 3.5 mph - N/A   Clear
9:15 PM 79.7 °F 48.4 °F 33% 30.09 in 7.0 mi ESE 3.5 mph - N/A   Clear
10:15 PM 72.1 °F 51.4 °F 48% 30.10 in 10.0 mi Calm Calm - N/A   Clear
11:15 PM 70.3 °F 50.4 °F 49% 30.11 in 10.0 mi SSE 3.5 mph - N/A   Clear
11:35 PM 68.7 °F 51.3 °F 54% 30.10 in 10.0 mi SSE 3.5 mph - N/A   Clear
11:55 PM 67.3 °F 51.3 °F 56% 30.11 in 10.0 mi SE 3.5 mph - N/A   Clear